Location: Briis
(48.6240°N, 2.1211°E)
Time: 07:06:11
(UTC+00:00)

SL-4 R/B - Pass Details

Date: 25 September 2020
Orbit: 428 x 666 km, 51.6° (Epoch: 19 October)

Event Time Altitude Azimuth Distance (km) Brightness Sun altitude
Exits shadow 03:57:22 37° 243° (WSW) 978 2.7 -17.9°
Maximum altitude 03:59:11 85° 157° (SSE) 645 2.3 -17.6°
Drops below altitude 10° 04:03:59 10° 69° (ENE) 2,072 6.3 -16.9°
Sets 04:06:22 0° 69° (ENE) 2,999 7.6 -16.5°
